Vorticity
4 8 5 10 12 12 7 5 4 1 2 3 6 4 5 5 4 7 6 8 8 8 12 12 20 25 29 29 27 28 26 25 26 10 11 10 7 6 10 12 6 6 9
10 4 4 16 12 9 4 1 -0 -0 -0 1 4 4 6 4 6 6 8 7 10 12 16 29 34 29 26 25 24 24 26 22 29 36 22 18 16 10 4 7 15 10 5
9 6 4 17 12 7 4 1 -1 1 2 2 5 4 5 7 6 7 7 9 14 23 35 31 24 19 16 15 12 12 13 16 19 23 26 23 24 24 14 6 6 12 13
11 12 14 12 9 7 4 2 3 3 4 4 6 6 6 6 6 7 8 10 23 34 25 15 12 15 17 18 15 10 8 8 9 16 18 21 18 20 27 17 8 6 9
6 12 15 11 8 7 6 5 5 5 5 5 5 7 7 6 6 8 7 18 32 24 13 19 25 23 24 24 24 27 29 19 9 8 12 16 19 15 17 23 20 10 7
8 11 15 10 7 8 6 5 4 6 5 6 6 6 7 6 7 8 11 28 23 12 19 19 18 25 27 28 29 26 29 29 30 18 8 8 17 18 15 18 20 17 13
13 14 15 9 5 7 6 5 6 7 6 7 7 5 6 7 7 11 18 27 15 16 17 21 26 24 31 33 32 26 22 25 30 30 22 10 8 16 16 15 15 18 17
13 16 12 6 6 7 6 6 7 7 7 6 6 6 6 7 8 14 21 21 13 20 13 23 30 39 36 35 37 43 38 25 25 28 30 21 15 8 14 16 14 15 18
13 14 10 6 6 8 6 7 8 7 7 6 6 6 6 9 12 19 21 15 14 15 21 31 39 35 31 31 32 39 43 43 28 27 24 29 18 19 10 14 16 16 17
12 12 9 5 6 8 6 7 7 8 7 5 6 6 8 11 16 21 16 12 15 8 19 43 33 21 22 20 23 28 33 36 31 23 30 22 24 19 20 11 14 16 15
12 12 8 4 6 8 6 7 7 7 6 6 6 7 9 13 21 20 14 13 11 8 19 47 30 16 15 7 5 14 27 30 32 29 31 25 21 20 20 23 14 11 14
14 11 8 4 6 8 7 7 7 7 6 6 7 7 10 15 21 20 13 14 9 7 19 47 25 21 14 12 8 9 41 34 33 28 33 25 23 20 19 20 24 20 11
14 10 7 4 6 8 6 6 7 7 6 6 7 8 9 16 23 21 13 14 7 9 15 48 22 16 0 21 2 4 18 37 35 31 24 21 22 23 17 14 20 22 19
12 11 7 4 6 8 7 6 7 8 6 6 7 8 10 14 25 24 12 14 8 14 11 50 31 10 2 6 14 5 -9 4 36 34 17 18 23 24 23 22 17 18 22
12 11 7 4 6 8 5 5 6 8 7 6 7 9 9 14 25 24 12 14 11 9 12 26 50 11 10 7 28 -2 10 11 17 9 13 18 18 21 20 22 21 20 20
13 11 7 5 6 8 6 5 8 8 7 6 8 9 11 13 25 26 12 12 10 6 15 17 55 17 10 11 9 18 8 8 7 6 22 15 10 14 16 23 24 25 24
12 11 8 5 7 7 4 5 5 8 8 6 8 10 11 14 23 25 14 13 9 6 12 13 24 53 4 11 3 21 5 12 20 20 14 21 23 21 12 20 26 18 10
11 10 8 6 7 7 5 5 7 7 6 4 7 10 12 15 21 24 16 13 12 5 7 18 17 46 26 5 9 13 9 -1 3 6 12 10 12 13 19 18 19 19 15
11 10 8 6 8 6 5 5 7 8 8 6 7 10 14 16 21 20 18 13 14 7 5 14 13 20 60 15 6 8 18 16 5 7 0 14 13 13 16 11 3 9 10
9 10 8 7 8 7 6 5 7 7 8 6 7 8 13 18 20 24 20 13 15 10 3 10 18 11 20 62 9 8 9 14 17 12 6 11 11 12 9 11 13 18 17
10 10 7 7 8 8 6 4 6 7 8 6 7 8 11 15 19 24 23 17 12 14 5 6 15 18 16 26 59 4 9 11 16 15 11 7 14 9 9 8 6 7 7
11 9 7 7 7 9 6 5 6 7 8 7 7 8 11 14 19 22 24 20 11 14 12 2 12 14 16 20 38 48 2 8 16 18 12 9 10 7 8 8 6 6 9
11 9 7 7 7 9 6 6 6 7 8 7 7 7 10 13 17 21 26 19 17 11 14 4 9 14 16 12 23 50 35 2 9 17 17 10 6 10 9 7 7 8 10
11 9 7 7 9 7 9 7 6 7 7 7 6 7 10 13 16 21 23 24 21 10 14 10 6 11 13 20 14 21 62 20 2 10 17 17 10 6 12 12 13 12 6
11 9 8 7 8 8 11 7 7 6 7 7 6 7 9 13 15 20 23 24 21 17 11 16 4 11 6 16 19 20 19 67 11 4 12 16 16 11 8 12 10 13 13
10 8 8 9 5 9 10 7 7 7 7 7 6 7 8 12 14 19 23 24 24 21 10 16 7 8 11 7 17 18 23 25 65 6 5 11 14 12 12 9 10 7 7
Height
5733 5727 5722 5716 5710 5704 5698 5694 5688 5683 5677 5671 5664 5658 5650 5642 5633 5623 5612 5600 5587 5575 5561 5548 5535 5522 5513 5506 5500 5496 5493 5492 5492 5504 5510 5523 5530 5532 5535 5541 5548 5556 5563
5724 5718 5712 5707 5701 5695 5690 5684 5678 5672 5666 5659 5652 5643 5634 5624 5614 5602 5589 5574 5560 5544 5528 5512 5498 5486 5478 5472 5467 5465 5462 5460 5457 5463 5476 5482 5498 5504 5509 5513 5520 5531 5538
5716 5711 5705 5699 5693 5687 5681 5675 5669 5662 5654 5646 5637 5627 5617 5606 5595 5581 5566 5550 5531 5511 5493 5479 5469 5458 5451 5443 5438 5435 5434 5433 5431 5430 5441 5450 5460 5473 5483 5490 5496 5503 5513
5709 5702 5696 5690 5684 5678 5671 5665 5659 5651 5642 5632 5623 5612 5601 5588 5575 5559 5541 5522 5502 5483 5468 5454 5442 5430 5419 5411 5405 5402 5401 5402 5404 5404 5411 5420 5426 5442 5451 5465 5471 5478 5486
5700 5694 5687 5681 5675 5669 5662 5655 5647 5638 5629 5619 5609 5596 5583 5569 5552 5535 5516 5495 5474 5459 5445 5428 5412 5398 5386 5376 5366 5366 5364 5367 5373 5378 5385 5391 5401 5411 5423 5436 5445 5453 5461
5691 5685 5678 5672 5666 5659 5651 5643 5635 5625 5615 5604 5592 5579 5564 5548 5530 5510 5490 5469 5451 5434 5418 5401 5383 5367 5354 5344 5336 5330 5330 5332 5339 5347 5358 5366 5378 5385 5397 5410 5417 5426 5439
5682 5675 5668 5662 5655 5648 5640 5631 5622 5612 5600 5588 5575 5561 5545 5528 5509 5489 5468 5446 5429 5411 5391 5371 5353 5337 5322 5310 5305 5302 5303 5303 5308 5316 5327 5340 5353 5363 5372 5382 5391 5402 5417
5672 5665 5659 5652 5645 5637 5628 5619 5609 5598 5586 5574 5559 5544 5528 5510 5490 5469 5449 5428 5412 5393 5371 5347 5326 5309 5295 5284 5278 5277 5278 5280 5285 5289 5299 5316 5328 5339 5346 5359 5370 5379 5389
5662 5656 5650 5642 5635 5626 5617 5608 5597 5585 5573 5558 5544 5528 5511 5492 5471 5450 5430 5414 5398 5379 5356 5330 5308 5295 5282 5272 5265 5261 5260 5263 5264 5268 5277 5290 5304 5316 5327 5335 5350 5359 5371
5653 5647 5640 5632 5625 5616 5606 5596 5584 5572 5559 5544 5529 5512 5494 5475 5455 5434 5413 5398 5383 5366 5347 5320 5301 5287 5277 5268 5260 5254 5251 5249 5248 5253 5261 5273 5283 5297 5308 5319 5331 5340 5351
5644 5637 5630 5623 5615 5605 5594 5584 5573 5560 5546 5532 5516 5499 5481 5461 5440 5420 5401 5385 5367 5351 5332 5314 5299 5288 5278 5270 5262 5255 5248 5244 5241 5245 5251 5260 5270 5281 5292 5303 5314 5323 5333
5634 5627 5620 5613 5604 5594 5584 5573 5561 5549 5535 5521 5505 5487 5468 5449 5428 5411 5393 5376 5357 5340 5323 5305 5294 5286 5277 5271 5264 5257 5248 5241 5238 5239 5245 5253 5261 5271 5280 5290 5298 5307 5317
5625 5617 5610 5603 5594 5584 5573 5562 5550 5538 5525 5511 5495 5478 5460 5440 5421 5403 5386 5371 5354 5336 5318 5300 5290 5284 5276 5272 5265 5259 5251 5243 5239 5239 5243 5248 5255 5261 5269 5278 5286 5294 5304
5615 5607 5600 5592 5583 5573 5562 5551 5539 5528 5515 5500 5485 5469 5450 5431 5413 5397 5382 5368 5353 5335 5318 5302 5290 5283 5275 5270 5266 5261 5255 5249 5244 5244 5245 5248 5252 5257 5263 5271 5278 5286 5294
5605 5597 5590 5582 5573 5562 5552 5540 5527 5515 5503 5490 5474 5458 5442 5422 5402 5385 5371 5358 5345 5330 5315 5301 5289 5283 5277 5271 5266 5263 5259 5254 5251 5249 5249 5250 5253 5256 5260 5265 5271 5277 5284
5595 5588 5580 5572 5563 5553 5541 5527 5516 5504 5490 5475 5460 5445 5427 5409 5392 5376 5362 5347 5336 5324 5310 5299 5286 5278 5274 5269 5265 5263 5261 5258 5254 5252 5251 5251 5253 5255 5258 5261 5266 5271 5277
5585 5578 5570 5562 5553 5543 5531 5520 5507 5490 5477 5464 5449 5432 5416 5400 5383 5367 5354 5341 5329 5320 5308 5295 5284 5275 5271 5268 5264 5262 5260 5259 5256 5254 5252 5252 5253 5255 5257 5261 5264 5269 5274
5575 5568 5560 5552 5543 5533 5522 5510 5498 5486 5472 5455 5439 5424 5406 5390 5374 5360 5349 5336 5324 5312 5303 5293 5283 5273 5266 5264 5263 5260 5258 5257 5256 5255 5254 5253 5253 5254 5257 5260 5264 5268 5273
5565 5558 5550 5542 5533 5523 5512 5500 5488 5476 5463 5449 5434 5416 5399 5381 5366 5353 5341 5331 5321 5311 5301 5290 5280 5271 5263 5259 5258 5257 5256 5255 5254 5254 5254 5254 5254 5255 5258 5261 5265 5268 5272
5555 5548 5540 5532 5524 5513 5502 5491 5479 5467 5454 5440 5426 5412 5396 5379 5364 5350 5337 5327 5317 5307 5297 5287 5277 5268 5260 5253 5252 5252 5251 5251 5251 5251 5252 5253 5253 5255 5257 5260 5263 5266 5270
5545 5538 5531 5523 5514 5504 5493 5483 5471 5459 5446 5432 5418 5403 5388 5373 5358 5344 5332 5321 5312 5303 5294 5284 5274 5265 5257 5250 5245 5245 5245 5246 5246 5247 5249 5251 5252 5253 5255 5257 5260 5264 5267
5535 5528 5521 5513 5504 5494 5485 5474 5463 5451 5438 5425 5411 5396 5380 5365 5350 5337 5324 5314 5305 5297 5289 5281 5271 5262 5253 5246 5240 5237 5238 5239 5240 5242 5244 5246 5248 5249 5251 5254 5256 5260 5263
5525 5518 5511 5503 5494 5485 5476 5466 5454 5442 5429 5416 5404 5389 5374 5359 5344 5331 5318 5307 5298 5290 5282 5275 5267 5258 5249 5242 5236 5231 5230 5232 5234 5235 5237 5240 5243 5245 5247 5250 5253 5256 5259
5515 5509 5501 5494 5485 5476 5466 5456 5445 5433 5421 5408 5395 5381 5366 5352 5337 5324 5311 5300 5291 5282 5276 5269 5262 5254 5246 5238 5231 5226 5222 5223 5226 5228 5230 5233 5236 5239 5242 5245 5248 5251 5254
5505 5499 5492 5484 5476 5467 5457 5447 5436 5424 5412 5400 5386 5373 5359 5344 5330 5316 5304 5293 5283 5276 5269 5262 5256 5249 5242 5235 5227 5221 5217 5214 5217 5219 5222 5225 5229 5232 5236 5240 5243 5246 5249
5496 5489 5482 5475 5467 5457 5448 5437 5427 5415 5404 5391 5378 5365 5351 5337 5323 5309 5297 5286 5276 5268 5261 5255 5249 5243 5236 5230 5223 5216 5211 5208 5206 5210 5213 5217 5221 5225 5230 5234 5238 5241 5245